Back to catalog

GEOSKAN-1

AliveScienceSSO
NORAD 64880·PAYLOAD·🇷🇺 Russia
This satellite name has not been confirmed by official sources yet.

Launched Jul 25, 2025 from Vostochny Cosmodrome

Loading…

Next Passes (next 24 hours)

TLE

FreshSource: Space-Track

Epoch: Sep 14, 2026, 14:59 UTC

1 64880U 25155E   26257.62460052  .00009305  00000-0  29939-3 0  9993
2 64880  97.4662 226.9107 0006230 203.9850 156.1102 15.32440577 94464

Track GEOSKAN-1 in real time with AllMySat

Download on the App Store